This demonstration page uses our WeatherBlox Daily Observations layout. Learn more.

Left ArrowRight Arrow

Hourly Observations for September 23, 2021

Temp ( °F °C ) Dew Point ( °F °C ) Humidity (%) Winds ( mph kmh ) Pressure ( in mb ) Visibility ( mi km ) Precip ( " mm )
12:53 am 00:53 Clear 57 13.9 42 5.6 58 58 SSE 9 15 30.09 1019 10 16 0.00 0.00
1:53 am 01:53 Clear 56 13.3 42 5.6 60 60 SSE 8 13 30.09 1019 10 16 0.00 0.00
2:53 am 02:53 Clear 54 12.2 42 5.6 64 64 S 8 13 30.09 1019 10 16 0.00 0.00
3:53 am 03:53 Clear 53 11.7 42 5.6 66 66 SSE 9 15 30.07 1018 10 16 0.00 0.00
4:53 am 04:53 Clear 52 11.1 42 5.6 69 69 SSE 9 15 30.06 1018 10 16 0.00 0.00
5:53 am 05:53 Clear 51 10.6 42 5.6 71 71 SSE 9 15 30.05 1018 10 16 0.00 0.00
6:53 am 06:53 Clear 50 10 42 5.6 74 74 SSE 7 11 30.04 1017 10 16 0.00 0.00
7:53 am 07:53 Sunny 50 10 42 5.6 74 74 SSE 8 13 30.04 1017 10 16 0.00 0.00
8:53 am 08:53 Sunny 53 11.7 43 6.1 69 69 S 10 17 30.03 1017 10 16 0.00 0.00
9:53 am 09:53 Sunny 60 15.6 44 6.7 56 56 SSW 8 13 30.01 1016 10 16 0.00 0.00
10:53 am 10:53 Sunny 68 20 41 5 38 38 SSW 12 19 30.00 1016 10 16 0.00 0.00
11:53 am 11:53 Sunny 72 22.2 43 6.1 35 35 SSW 10 17 29.98 1015 10 16 0.00 0.00
12:53 pm 12:53 Sunny 77 25 44 6.7 31 31 S 10 17 29.96 1015 10 16 0.00 0.00
1:53 pm 13:53 Sunny 80 26.7 44 6.7 28 28 S 8 13 29.93 1014 10 16 0.00 0.00
2:53 pm 14:53 Sunny 82 27.8 44 6.7 26 26 SSW 13 20 29.90 1013 10 16 0.00 0.00
3:53 pm 15:53 Sunny 83 28.3 44 6.7 25 25 S 9 15 29.88 1012 10 16 0.00 0.00
4:53 pm 16:53 Sunny 83 28.3 43 6.1 24 24 S 14 22 29.87 1012 10 16 0.00 0.00
5:53 pm 17:53 Sunny 83 28.3 44 6.7 25 25 S 12 19 29.87 1012 10 16 0.00 0.00
6:53 pm 18:53 Sunny 79 26.1 45 7.2 30 30 S 6 9 29.87 1012 10 16 0.00 0.00
7:53 pm 19:53 Clear 74 23.3 45 7.2 36 36 S 5 7 29.88 1012 10 16 0.00 0.00
8:53 pm 20:53 Clear 71 21.7 45 7.2 39 39 S 8 13 29.88 1012 10 16 0.00 0.00
9:53 pm 21:53 Clear 68 20 45 7.2 44 44 undefined N/A 29.88 1012 10 16 0.00 0.00
10:53 pm 22:53 Clear 65 18.3 45 7.2 49 49 undefined N/A 29.87 1011 10 16 0.00 0.00
11:53 pm 23:53 Clear 63 17.2 45 7.2 52 52 S 7 11 29.86 1011 10 16 0.00 0.00

Powered by AerisWeather